This is the latest recevied weather packets stored in our database for station/object KC3BHK-2. If no packets are shown the sender has not sent any weather packets the latest 10 day(s).
| Time | Temp. | Humidity | Pressure | Rain* | Wind** | Luminosity | Snow |
|---|---|---|---|---|---|---|---|
| 1777502896 | 14.44° C | - | - | 0 mm | 0 m/s | - | - |
| 1777502591 | 13.33° C | - | - | 0 mm | 0 m/s | - | - |
| 1777502286 | 13.89° C | - | - | 0 mm | 2.68 m/s, 266° | - | - |
| 1777501979 | 13.33° C | - | - | 0 mm | 0 m/s | - | - |
| 1777501674 | 13.89° C | - | - | 0 mm | 0 m/s | - | - |
| 1777501369 | 13.33° C | - | - | 0 mm | 0 m/s | - | - |
| 1777501064 | 13.89° C | - | - | 0 mm | 0.45 m/s, 108° | - | - |
| 1777500760 | 13.89° C | - | - | 0 mm | 3.58 m/s, 135° | - | - |
| 1777500455 | 13.89° C | - | - | 0 mm | 4.92 m/s, 100° | - | - |
| 1777500147 | 12.78° C | - | - | 0 mm | 1.79 m/s, 94° | - | - |
| 1777499842 | 13.33° C | - | - | 0 mm | 1.79 m/s, 152° | - | - |
| 1777499537 | 14.44° C | - | - | 0 mm | 0.89 m/s, 107° | - | - |
| 1777499233 | 13.89° C | - | - | 0 mm | 1.34 m/s, 153° | - | - |
| 1777498928 | 13.33° C | - | - | 0 mm | 2.24 m/s, 142° | - | - |
| 1777498623 | 14.44° C | - | - | 0 mm | 1.79 m/s, 146° | - | - |
| 1777498315 | 14.44° C | - | - | 0 mm | 1.34 m/s, 149° | - | - |
| 1777498010 | 14.44° C | - | - | 0 mm | 3.58 m/s, 141° | - | - |
| 1777497706 | 14.44° C | - | - | 0 mm | 2.24 m/s, 142° | - | - |
| 1777497401 | 14.44° C | - | - | 0 mm | 1.79 m/s, 128° | - | - |
| 1777497096 | 14.44° C | - | - | 0 mm | 2.24 m/s, 120° | - | - |
| 1777496791 | 14.44° C | - | - | 0 mm | 1.34 m/s, 167° | - | - |
| 1777496483 | 14.44° C | - | - | 0 mm | 1.34 m/s, 163° | - | - |
| 1777496179 | 15° C | - | - | 0 mm | 2.24 m/s, 158° | - | - |
| 1777495874 | 14.44° C | - | - | 0 mm | 1.79 m/s, 125° | - | - |
| 1777495569 | 14.44° C | - | - | 0 mm | 2.24 m/s, 153° | - | - |
* Rain latest hour (hover to see other rain measurements)
** Current wind speed in m/s (hover to see current wind gust speed)